Corsicana, TX

3:30 PM CDT on April 28, 2017 (GMT -0500)
Campbell-Corsicana Municipal

Weather History for KCRS - June, 2013

Change the Weather History Date:

Sunday, June 23, 2013

  Actual Average (KTYR) Record (KTYR)
Temperature  
Mean Temperature 86 °F -  
Max Temperature 98 °F 87 °F 105 °F (1925)
Min Temperature 75 °F 69 °F 58 °F (1966)
Cooling Degree Days 21    
Growing Degree Days 36 (Base 50)    
Moisture  
Dew Point 68 °F    
Average Humidity 60    
Maximum Humidity 89    
Minimum Humidity 30    
Precipitation  
Precipitation 0.00 in - - ()
Sea Level Pressure  
Sea Level Pressure 29.96 in    
Wind  
Wind Speed 11 mph (SSE)    
Max Wind Speed 21 mph    
Max Gust Speed 24 mph    
Visibility 10 miles    
Events      
Averages and records for this station are not official NWS values.
T = Trace of Precipitation, MM = Missing Value Source: NWS Daily Summary

Daily Weather History Graph

Daily Weather History Graph

Search for Another Location

Airport or City:

Trip Planner

Search our weather history database for the weather conditions in past years. The results will help you decide how hot, cold, wet, or windy it might be!

Date:

Astronomy

Jun. 23, 2013 Rise Set
Actual Time 6:20 AM CDT 8:35 PM CDT
Civil Twilight 5:52 AM CDT 9:03 PM CDT
Nautical Twilight 5:17 AM CDT 9:38 PM CDT
Astronomical Twilight 4:40 AM CDT 10:15 PM CDT
Moon 8:53 PM CDT (6/23) 6:35 AM CDT (6/23)
Length of Visible Light 15h 11m
Length of Day
14h 14m
Full, 100% of the Moon is Illuminated
Jun 23
Full
Jun 29
Last Quarter
Jul 8
New
Jul 15
First Quarter
Jul 22
Full

Hourly Weather History & Observations

Time (CDT) Temp. Heat Index Dew Point Humidity Pressure Visibility Wind Dir Wind Speed Gust Speed Precip Events Conditions
12:53 AM 82.0 °F 85.5 °F 69.1 °F 65% 29.96 in 10.0 mi SSE 10.4 mph - N/A   Clear
1:53 AM 81.0 °F 83.8 °F 68.0 °F 65% 29.95 in 10.0 mi South 10.4 mph - N/A   Clear
2:53 AM 80.1 °F 82.9 °F 69.1 °F 69% 29.95 in 10.0 mi South 9.2 mph - N/A   Clear
3:53 AM 78.1 °F - 70.0 °F 76% 29.94 in 10.0 mi South 9.2 mph - N/A   Clear
4:53 AM 77.0 °F - 70.0 °F 79% 29.95 in 10.0 mi South 9.2 mph - N/A   Clear
5:53 AM 75.0 °F - 71.1 °F 87% 29.96 in 10.0 mi South 8.1 mph - N/A   Clear
6:31 AM 75.2 °F - 71.6 °F 89% 29.98 in 9.0 mi South 10.4 mph - N/A   Mostly Cloudy
6:53 AM 75.9 °F - 72.0 °F 87% 29.97 in 9.0 mi South 10.4 mph - N/A   Mostly Cloudy
7:17 AM 77.0 °F - 71.6 °F 83% 29.99 in 9.0 mi SSE 10.4 mph - N/A   Scattered Clouds
7:27 AM 77.0 °F - 71.6 °F 83% 29.99 in 9.0 mi South 11.5 mph - N/A   Mostly Cloudy
7:53 AM 79.0 °F - 73.0 °F 82% 29.98 in 9.0 mi South 9.2 mph - N/A   Overcast
8:53 AM 82.0 °F 86.7 °F 72.0 °F 71% 30.00 in 10.0 mi South 13.8 mph - N/A   Overcast
9:25 AM 82.4 °F 87.2 °F 71.6 °F 70% 30.02 in 10.0 mi South 13.8 mph - N/A   Scattered Clouds
9:35 AM 84.2 °F 89.6 °F 71.6 °F 66% 30.03 in 10.0 mi South 13.8 mph - N/A   Mostly Cloudy
9:53 AM 84.0 °F 89.0 °F 71.1 °F 65% 30.01 in 10.0 mi South 11.5 mph - N/A   Mostly Cloudy
10:00 AM 84.2 °F 89.6 °F 71.6 °F 66% 30.03 in 10.0 mi South 10.4 mph 17.3 mph N/A   Scattered Clouds
10:53 AM 88.0 °F 92.1 °F 69.1 °F 53% 30.01 in 10.0 mi SSE 11.5 mph 18.4 mph N/A   Partly Cloudy
11:53 AM 90.0 °F 92.8 °F 66.9 °F 46% 30.00 in 10.0 mi South 11.5 mph 24.2 mph N/A   Partly Cloudy
12:53 PM 91.9 °F 95.4 °F 66.9 °F 44% 29.98 in 10.0 mi South 18.4 mph 23.0 mph N/A   Clear
1:53 PM 93.9 °F 96.1 °F 64.9 °F 38% 29.96 in 10.0 mi SSE 17.3 mph 23.0 mph N/A   Partly Cloudy
2:53 PM 96.1 °F 97.3 °F 63.0 °F 33% 29.93 in 10.0 mi SSE 16.1 mph 24.2 mph N/A   Partly Cloudy
3:53 PM 97.0 °F 97.4 °F 61.0 °F 30% 29.91 in 10.0 mi South 20.7 mph 24.2 mph N/A   Clear
4:53 PM 96.1 °F 97.3 °F 63.0 °F 33% 29.91 in 10.0 mi SE 9.2 mph 19.6 mph N/A   Partly Cloudy
5:53 PM 96.1 °F 96.9 °F 62.1 °F 32% 29.90 in 10.0 mi South 12.7 mph - N/A   Partly Cloudy
6:53 PM 93.9 °F 93.6 °F 60.1 °F 32% 29.90 in 10.0 mi South 12.7 mph 19.6 mph N/A   Clear
7:53 PM 91.9 °F 92.9 °F 63.0 °F 38% 29.90 in 10.0 mi SSE 10.4 mph - N/A   Clear
8:53 PM 88.0 °F 89.6 °F 64.9 °F 46% 29.91 in 10.0 mi ESE 6.9 mph - N/A   Clear
9:53 PM 87.1 °F 90.6 °F 68.0 °F 53% 29.93 in 10.0 mi SSE 11.5 mph - N/A   Clear
10:53 PM 84.9 °F 89.4 °F 70.0 °F 61% 29.95 in 10.0 mi SSE 9.2 mph - N/A   Clear
11:53 PM 82.9 °F 87.0 °F 70.0 °F 65% 29.96 in 10.0 mi SSE 10.4 mph - N/A   Clear